Tracking 22882 objects as of 19-Apr-2021
HD Live streaming from Space Station
objects crossing your sky now

STARLINK-1793

Track STARLINK-1793 now!
10-day predictions
STARLINK-1793 is classified as:


NORAD ID: 46694
Int'l Code: 2020-073AA
Perigee: 548.4 km
Apogee: 560.2 km
Inclination: 53.1 °
Period: 95.6 minutes
Semi major axis: 6925 km
RCS: Unknown
Launch date: October 18, 2020
Source: United States (US)
Launch site: AIR FORCE EASTERN TEST RANGE (AFETR)
aabbcc
Your satellite tracking list
Your tracking list is empty




NASA's NSSDC Master Catalog

Two Line Element Set (TLE):
1 46694U 20073AA  21108.32045360  .00001827  00000-0  14159-3 0  9997
2 46694  53.0547 320.9260 0008516   7.7515 352.3604 15.06406053 28162
Source of the keplerian elements: AFSPC